,,Stat6,,Stat2,,Stat8,,Stat9,,Stat10,,Wind1,,Wind1,
time,status,PA1M_AVG,status,PR1M_SUM,status,RH1M_AVG,status,SR1M_AVG,status,TA1M_AVG,status,W1dAve1m,status,W1sAve1m,
2008-07-24, 00:00:00,VALID,917.12,VALID,0,VALID,100,VALID,-0.0509425,VALID,18.7734,VALID,37,VALID,0.485647,
2008-07-24, 00:01:00,VALID,917.114,VALID,0,VALID,100,VALID,-0.0679233,VALID,18.7537,VALID,37,VALID,0.23316,
2008-07-24, 00:02:00,VALID,917.127,VALID,0,VALID,100,VALID,-0.101885,VALID,18.7507,VALID,37,VALID,0,
2008-07-24, 00:03:00,VALID,917.123,VALID,0,VALID,100,VALID,-0.0849042,VALID,18.7507,VALID,37,VALID,0,
2008-07-24, 00:04:00,VALID,917.111,VALID,0,VALID,100,VALID,-0.101885,VALID,18.7504,VALID,37,VALID,0,
2008-07-24, 00:05:00,VALID,917.108,VALID,0,VALID,100,VALID,-0.101885,VALID,18.7567,VALID,37,VALID,0,
2008-07-24, 00:06:00,VALID,917.106,VALID,0,VALID,100,VALID,-0.0679233,VALID,18.7502,VALID,37,VALID,0,
2008-07-24, 00:07:00,VALID,917.107,VALID,0,VALID,100,VALID,-0.0679233,VALID,18.7699,VALID,37,VALID,0,
2008-07-24, 00:08:00,VALID,917.135,VALID,0,VALID,100,VALID,-0.101885,VALID,18.7831,VALID,37,VALID,0,
2008-07-24, 00:09:00,VALID,917.152,VALID,0,VALID,100,VALID,-0.0849042,VALID,18.8086,VALID,37,VALID,0,
2008-07-24, 00:10:00,VALID,917.153,VALID,0,VALID,100,VALID,-0.0339617,VALID,18.8216,VALID,37,VALID,0,
2008-07-24, 00:11:00,VALID,917.154,VALID,0,VALID,100,VALID,-0.0849042,VALID,18.8345,VALID,37,VALID,0,
2008-07-24, 00:12:00,VALID,917.151,VALID,0,VALID,100,VALID,-0.101885,VALID,18.8313,VALID,37,VALID,0,
2008-07-24, 00:13:00,VALID,917.122,VALID,0,VALID,100,VALID,-0.0509425,VALID,18.838,VALID,37,VALID,0,
2008-07-24, 00:14:00,VALID,917.124,VALID,0,VALID,100,VALID,-0.0849042,VALID,18.848,VALID,37,VALID,0,
2008-07-24, 00:15:00,VALID,917.112,VALID,0,VALID,100,VALID,-0.0679233,VALID,18.8607,VALID,37,VALID,0,
2008-07-24, 00:16:00,VALID,917.118,VALID,0,VALID,100,VALID,-0.0679233,VALID,18.8869,VALID,37,VALID,0,
2008-07-24, 00:17:00,VALID,917.104,VALID,0,VALID,100,VALID,-0.0849042,VALID,18.9096,VALID,43,VALID,0,
2008-07-24, 00:18:00,VALID,917.094,VALID,0,VALID,100,VALID,-0.118866,VALID,18.9268,VALID,45,VALID,0,
2008-07-24, 00:19:00,VALID,917.058,VALID,0,VALID,100,VALID,-0.118866,VALID,18.943,VALID,45,VALID,0,
2008-07-24, 00:20:00,VALID,917.054,VALID,0,VALID,100,VALID,-0.169808,VALID,18.9593,VALID,45,VALID,0,
2008-07-24, 00:21:00,VALID,917.034,VALID,0,VALID,100,VALID,-0.152827,VALID,18.979,VALID,45,VALID,0,
2008-07-24, 00:22:00,VALID,917.014,VALID,0,VALID,100,VALID,-0.152827,VALID,18.982,VALID,45,VALID,0,
2008-07-24, 00:23:00,VALID,917.003,VALID,0,VALID,100,VALID,-0.152827,VALID,18.9852,VALID,51,VALID,0,
2008-07-24, 00:24:00,VALID,916.981,VALID,0,VALID,100,VALID,-0.135847,VALID,18.979,VALID,84,VALID,0.276344,
2008-07-24, 00:25:00,VALID,916.962,VALID,0,VALID,100,VALID,-0.135847,VALID,18.9625,VALID,121,VALID,0.605283,
2008-07-24, 00:26:00,VALID,916.964,VALID,0,VALID,100,VALID,-0.152827,VALID,18.9493,VALID,124,VALID,0.10556,
2008-07-24, 00:27:00,VALID,916.958,VALID,0,VALID,100,VALID,-0.169808,VALID,18.9463,VALID,124,VALID,0,
2008-07-24, 00:28:00,VALID,916.944,VALID,0,VALID,100,VALID,-0.169808,VALID,18.9498,VALID,124,VALID,0,
2008-07-24, 00:29:00,VALID,916.957,VALID,0,VALID,100,VALID,-0.152827,VALID,18.9625,VALID,124,VALID,0,
2008-07-24, 00:30:00,VALID,916.954,VALID,0,VALID,100,VALID,-0.135847,VALID,18.9722,VALID,124,VALID,0,
2008-07-24, 00:31:00,VALID,916.945,VALID,0,VALID,100,VALID,-0.152827,VALID,18.9787,VALID,122,VALID,0,
2008-07-24, 00:32:00,VALID,916.959,VALID,0,VALID,100,VALID,-0.135847,VALID,18.979,VALID,70,VALID,0,
2008-07-24, 00:33:00,VALID,916.954,VALID,0,VALID,100,VALID,-0.152827,VALID,18.969,VALID,70,VALID,0,
2008-07-24, 00:34:00,VALID,916.953,VALID,0,VALID,100,VALID,-0.135847,VALID,18.9528,VALID,70,VALID,0,
2008-07-24, 00:35:00,VALID,916.961,VALID,0,VALID,100,VALID,-0.135847,VALID,18.9333,VALID,71,VALID,0,
2008-07-24, 00:36:00,VALID,916.95,VALID,0,VALID,100,VALID,-0.152827,VALID,18.9268,VALID,96,VALID,0,
2008-07-24, 00:37:00,VALID,916.921,VALID,0,VALID,100,VALID,-0.152827,VALID,18.9236,VALID,92,VALID,0.504278,
2008-07-24, 00:38:00,VALID,916.898,VALID,0,VALID,100,VALID,-0.152827,VALID,18.9104,VALID,69,VALID,1.01376,
2008-07-24, 00:39:00,VALID,916.878,VALID,0,VALID,100,VALID,-0.118866,VALID,18.9073,VALID,71,VALID,0.534091,
2008-07-24, 00:40:00,VALID,916.868,VALID,0,VALID,100,VALID,-0.101885,VALID,18.9104,VALID,24,VALID,0.760174,
2008-07-24, 00:41:00,VALID,916.86,VALID,0,VALID,100,VALID,-0.152827,VALID,18.9268,VALID,18,VALID,1.12258,
2008-07-24, 00:42:00,VALID,916.858,VALID,0,VALID,100,VALID,-0.135847,VALID,18.8747,VALID,29,VALID,0.866146,
2008-07-24, 00:43:00,VALID,916.85,VALID,0,VALID,100,VALID,-0.101885,VALID,18.8679,VALID,29,VALID,0.303499,
2008-07-24, 00:44:00,VALID,916.846,VALID,0,VALID,100,VALID,-0.169808,VALID,18.8779,VALID,29,VALID,0,
2008-07-24, 00:45:00,VALID,916.836,VALID,0,VALID,100,VALID,-0.118866,VALID,18.9011,VALID,29,VALID,0,
2008-07-24, 00:46:00,VALID,916.825,VALID,0,VALID,100,VALID,-0.118866,VALID,18.8906,VALID,35,VALID,0,
2008-07-24, 00:47:00,VALID,916.82,VALID,0,VALID,100,VALID,-0.101885,VALID,18.8804,VALID,53,VALID,0,
2008-07-24, 00:48:00,VALID,916.797,VALID,0,VALID,100,VALID,-0.0679233,VALID,18.8864,VALID,53,VALID,0,
2008-07-24, 00:49:00,VALID,916.777,VALID,0,VALID,100,VALID,-0.0169808,VALID,18.9059,VALID,53,VALID,0,
2008-07-24, 00:50:00,VALID,916.761,VALID,0,VALID,100,VALID,-0.0339617,VALID,18.9319,VALID,53,VALID,0,
2008-07-24, 00:51:00,VALID,916.755,VALID,0,VALID,100,VALID,-0.0169808,VALID,18.9411,VALID,53,VALID,0,
2008-07-24, 00:52:00,VALID,916.757,VALID,0,VALID,100,VALID,0,VALID,18.9576,VALID,53,VALID,0,
2008-07-24, 00:53:00,VALID,916.754,VALID,0,VALID,100,VALID,-0.0509425,VALID,18.9508,VALID,53,VALID,0,
2008-07-24, 00:54:00,VALID,916.762,VALID,0,VALID,100,VALID,-0.0509425,VALID,18.9578,VALID,53,VALID,0,
2008-07-24, 00:55:00,VALID,916.759,VALID,0,VALID,100,VALID,-0.0679233,VALID,18.9611,VALID,53,VALID,0,
2008-07-24, 00:56:00,VALID,916.764,VALID,0,VALID,100,VALID,-0.0679233,VALID,18.9578,VALID,53,VALID,0,
2008-07-24, 00:57:00,VALID,916.756,VALID,0,VALID,100,VALID,-0.0679233,VALID,18.9743,VALID,53,VALID,0,
2008-07-24, 00:58:00,VALID,916.751,VALID,0,VALID,100,VALID,-0.0849042,VALID,18.984,VALID,53,VALID,0,
2008-07-24, 00:59:00,VALID,916.749,VALID,0,VALID,100,VALID,-0.0509425,VALID,18.9805,VALID,53,VALID,0,
2008-07-24, 01:00:00,VALID,916.749,VALID,0,VALID,100,VALID,-0.0169808,VALID,18.9676,VALID,53,VALID,0,
2008-07-24, 01:01:00,VALID,916.737,VALID,0,VALID,100,VALID,-0.0509425,VALID,18.9384,VALID,53,VALID,0,
2008-07-24, 01:02:00,VALID,916.725,VALID,0,VALID,100,VALID,-0.0679233,VALID,18.9129,VALID,53,VALID,0,
2008-07-24, 01:03:00,VALID,916.714,VALID,0,VALID,100,VALID,-0.169808,VALID,18.9173,VALID,53,VALID,0,
2008-07-24, 01:04:00,VALID,916.685,VALID,0,VALID,100,VALID,-0.135847,VALID,18.9043,VALID,53,VALID,0,
2008-07-24, 01:05:00,VALID,916.656,VALID,0,VALID,100,VALID,-0.135847,VALID,18.8976,VALID,53,VALID,0,
2008-07-24, 01:06:00,VALID,916.647,VALID,0,VALID,100,VALID,-0.135847,VALID,18.8744,VALID,53,VALID,0,
2008-07-24, 01:07:00,VALID,916.642,VALID,0,VALID,100,VALID,-0.152827,VALID,18.8844,VALID,53,VALID,0,
2008-07-24, 01:08:00,VALID,916.643,VALID,0,VALID,100,VALID,-0.135847,VALID,18.8617,VALID,53,VALID,0,
2008-07-24, 01:09:00,VALID,916.639,VALID,0,VALID,100,VALID,-0.152827,VALID,18.8584,VALID,53,VALID,0,
2008-07-24, 01:10:00,VALID,916.631,VALID,0,VALID,100,VALID,-0.135847,VALID,18.8392,VALID,124,VALID,0,
2008-07-24, 01:11:00,VALID,916.611,VALID,0,VALID,100,VALID,-0.135847,VALID,18.836,VALID,176,VALID,0,
2008-07-24, 01:12:00,VALID,916.577,VALID,0,VALID,100,VALID,-0.135847,VALID,18.8158,VALID,176,VALID,0,
2008-07-24, 01:13:00,VALID,916.542,VALID,0,VALID,100,VALID,-0.135847,VALID,18.8068,VALID,176,VALID,0,
2008-07-24, 01:14:00,VALID,916.489,VALID,0,VALID,100,VALID,-0.101885,VALID,18.8035,VALID,176,VALID,0,
2008-07-24, 01:15:00,VALID,916.463,VALID,0,VALID,100,VALID,-0.118866,VALID,18.7903,VALID,176,VALID,0,
2008-07-24, 01:16:00,VALID,916.457,VALID,0,VALID,100,VALID,-0.101885,VALID,18.7776,VALID,176,VALID,0,
2008-07-24, 01:17:00,VALID,916.449,VALID,0,VALID,100,VALID,-0.118866,VALID,18.7706,VALID,176,VALID,0,
2008-07-24, 01:18:00,VALID,916.446,VALID,0,VALID,100,VALID,-0.0679233,VALID,18.7537,VALID,176,VALID,0.0661337,
2008-07-24, 01:19:00,VALID,916.441,VALID,0,VALID,100,VALID,-0.0849042,VALID,18.7437,VALID,169,VALID,0.59654,
2008-07-24, 01:20:00,VALID,916.442,VALID,0,VALID,100,VALID,-0.101885,VALID,18.7115,VALID,166,VALID,0.405895,
2008-07-24, 01:21:00,VALID,916.431,VALID,0,VALID,100,VALID,-0.0849042,VALID,18.6913,VALID,161,VALID,0.418713,
2008-07-24, 01:22:00,VALID,916.432,VALID,0,VALID,100,VALID,-0.0339617,VALID,18.6951,VALID,160,VALID,0.0678819,
2008-07-24, 01:23:00,VALID,916.44,VALID,0,VALID,100,VALID,-0.0339617,VALID,18.6788,VALID,160,VALID,0,
2008-07-24, 01:24:00,VALID,916.44,VALID,0,VALID,100,VALID,-0.0849042,VALID,18.6436,VALID,152,VALID,0,
2008-07-24, 01:25:00,VALID,916.439,VALID,0,VALID,100,VALID,-0.0509425,VALID,18.6042,VALID,150,VALID,0,
2008-07-24, 01:26:00,VALID,916.451,VALID,0,VALID,100,VALID,-0.101885,VALID,18.5685,VALID,150,VALID,0,
2008-07-24, 01:27:00,VALID,916.458,VALID,0,VALID,100,VALID,-0.101885,VALID,18.5588,VALID,150,VALID,0.231399,
2008-07-24, 01:28:00,VALID,916.465,VALID,0,VALID,100,VALID,-0.0679233,VALID,18.5688,VALID,150,VALID,0,
2008-07-24, 01:29:00,VALID,916.461,VALID,0,VALID,100,VALID,-0.0169808,VALID,18.5491,VALID,145,VALID,0,
2008-07-24, 01:30:00,VALID,916.441,VALID,0,VALID,100,VALID,-0.0679233,VALID,18.5326,VALID,142,VALID,0,
2008-07-24, 01:31:00,VALID,916.439,VALID,0,VALID,100,VALID,-0.101885,VALID,18.5037,VALID,139,VALID,0,
2008-07-24, 01:32:00,VALID,916.423,VALID,0,VALID,100,VALID,-0.0339617,VALID,18.471,VALID,119,VALID,0,
2008-07-24, 01:33:00,VALID,916.413,VALID,0,VALID,100,VALID,-0.0679233,VALID,18.4351,VALID,107,VALID,0,
2008-07-24, 01:34:00,VALID,916.423,VALID,0,VALID,100,VALID,-0.0849042,VALID,18.3966,VALID,75,VALID,0,
2008-07-24, 01:35:00,VALID,916.431,VALID,0,VALID,100,VALID,-0.0509425,VALID,18.3607,VALID,68,VALID,0,
2008-07-24, 01:36:00,VALID,916.455,VALID,0,VALID,100,VALID,-0.0679233,VALID,18.3281,VALID,68,VALID,0,
2008-07-24, 01:37:00,VALID,916.484,VALID,0,VALID,100,VALID,-0.0849042,VALID,18.3348,VALID,71,VALID,0,
2008-07-24, 01:38:00,VALID,916.503,VALID,0,VALID,100,VALID,-0.0679233,VALID,18.322,VALID,72,VALID,0,
2008-07-24, 01:39:00,VALID,916.505,VALID,0,VALID,100,VALID,-0.0679233,VALID,18.3121,VALID,69,VALID,0,
2008-07-24, 01:40:00,VALID,916.513,VALID,0,VALID,100,VALID,-0.0339617,VALID,18.3023,VALID,55,VALID,0,
2008-07-24, 01:41:00,VALID,916.514,VALID,0,VALID,100,VALID,-0.0509425,VALID,18.2991,VALID,55,VALID,0,
2008-07-24, 01:42:00,VALID,916.516,VALID,0,VALID,100,VALID,-0.0509425,VALID,18.2924,VALID,55,VALID,0,
2008-07-24, 01:43:00,VALID,916.51,VALID,0,VALID,100,VALID,-0.0339617,VALID,18.2725,VALID,55,VALID,0,
2008-07-24, 01:44:00,VALID,916.525,VALID,0,VALID,100,VALID,-0.0339617,VALID,18.2794,VALID,55,VALID,0,
2008-07-24, 01:45:00,VALID,916.529,VALID,0,VALID,100,VALID,-0.0169808,VALID,18.2796,VALID,55,VALID,0,
2008-07-24, 01:46:00,VALID,916.538,VALID,0,VALID,100,VALID,-0.0169808,VALID,18.2537,VALID,55,VALID,0,
2008-07-24, 01:47:00,VALID,916.555,VALID,0,VALID,100,VALID,-0.0849042,VALID,18.2187,VALID,47,VALID,0,
2008-07-24, 01:48:00,VALID,916.566,VALID,0,VALID,100,VALID,-0.186789,VALID,18.2321,VALID,6,VALID,0,
2008-07-24, 01:49:00,VALID,916.564,VALID,0,VALID,100,VALID,-0.152827,VALID,18.2813,VALID,329,VALID,0,
2008-07-24, 01:50:00,VALID,916.561,VALID,0,VALID,100,VALID,-0.135847,VALID,18.2845,VALID,329,VALID,0,
2008-07-24, 01:51:00,VALID,916.538,VALID,0,VALID,100,VALID,-0.169808,VALID,18.2778,VALID,329,VALID,0,
2008-07-24, 01:52:00,VALID,916.518,VALID,0,VALID,100,VALID,-0.20377,VALID,18.2748,VALID,329,VALID,0,
2008-07-24, 01:53:00,VALID,916.485,VALID,0,VALID,100,VALID,-0.186789,VALID,18.2553,VALID,329,VALID,0,
2008-07-24, 01:54:00,VALID,916.459,VALID,0,VALID,100,VALID,-0.186789,VALID,18.2261,VALID,329,VALID,0,
2008-07-24, 01:55:00,VALID,916.461,VALID,0,VALID,100,VALID,-0.152827,VALID,18.174,VALID,329,VALID,0,
2008-07-24, 01:56:00,VALID,916.451,VALID,0,VALID,100,VALID,-0.101885,VALID,18.1316,VALID,329,VALID,0,
2008-07-24, 01:57:00,VALID,916.456,VALID,0,VALID,100,VALID,-0.169808,VALID,18.054,VALID,34,VALID,0,
2008-07-24, 01:58:00,VALID,916.477,VALID,0,VALID,100,VALID,-0.135847,VALID,17.9632,VALID,65,VALID,0,
2008-07-24, 01:59:00,VALID,916.496,VALID,0,VALID,100,VALID,-0.186789,VALID,17.9018,VALID,65,VALID,0,
2008-07-24, 02:00:00,VALID,916.501,VALID,0,VALID,100,VALID,-0.169808,VALID,17.8788,VALID,65,VALID,0,
2008-07-24, 02:01:00,VALID,916.525,VALID,0,VALID,100,VALID,-0.169808,VALID,17.8174,VALID,65,VALID,0,
2008-07-24, 02:02:00,VALID,916.534,VALID,0,VALID,100,VALID,-0.0849042,VALID,17.7158,VALID,65,VALID,0,
2008-07-24, 02:03:00,VALID,916.531,VALID,0,VALID,100,VALID,-0.0849042,VALID,17.6343,VALID,65,VALID,0,
2008-07-24, 02:04:00,VALID,916.525,VALID,0,VALID,100,VALID,-0.0339617,VALID,17.5789,VALID,65,VALID,0,
2008-07-24, 02:05:00,VALID,916.518,VALID,0,VALID,100,VALID,-0.0509425,VALID,17.55,VALID,65,VALID,0,
2008-07-24, 02:06:00,VALID,916.502,VALID,0,VALID,100,VALID,0,VALID,17.537,VALID,65,VALID,0,
2008-07-24, 02:07:00,VALID,916.487,VALID,0,VALID,100,VALID,-0.0169808,VALID,17.5136,VALID,65,VALID,0,
2008-07-24, 02:08:00,VALID,916.478,VALID,0,VALID,100,VALID,-0.0339617,VALID,17.4261,VALID,65,VALID,0,
2008-07-24, 02:09:00,VALID,916.465,VALID,0,VALID,100,VALID,-0.0679233,VALID,17.3783,VALID,65,VALID,0,
2008-07-24, 02:10:00,VALID,916.451,VALID,0,VALID,100,VALID,-0.101885,VALID,17.3433,VALID,65,VALID,0,
2008-07-24, 02:11:00,VALID,916.451,VALID,0,VALID,100,VALID,-0.118866,VALID,17.3141,VALID,65,VALID,0,
2008-07-24, 02:12:00,VALID,916.448,VALID,0,VALID,100,VALID,-0.152827,VALID,17.3146,VALID,65,VALID,0,
2008-07-24, 02:13:00,VALID,916.448,VALID,0,VALID,100,VALID,-0.135847,VALID,17.3174,VALID,65,VALID,0,
2008-07-24, 02:14:00,VALID,916.453,VALID,0,VALID,100,VALID,-0.118866,VALID,17.3792,VALID,65,VALID,0,
2008-07-24, 02:15:00,VALID,916.452,VALID,0,VALID,100,VALID,-0.135847,VALID,17.4635,VALID,65,VALID,0,
2008-07-24, 02:16:00,VALID,916.459,VALID,0,VALID,100,VALID,-0.118866,VALID,17.5052,VALID,65,VALID,0,
2008-07-24, 02:17:00,VALID,916.463,VALID,0,VALID,100,VALID,-0.118866,VALID,17.4957,VALID,65,VALID,0,
2008-07-24, 02:18:00,VALID,916.459,VALID,0,VALID,100,VALID,-0.169808,VALID,17.4311,VALID,65,VALID,0,
2008-07-24, 02:19:00,VALID,916.439,VALID,0,VALID,100,VALID,-0.186789,VALID,17.3498,VALID,65,VALID,0,
2008-07-24, 02:20:00,VALID,916.426,VALID,0,VALID,100,VALID,-0.135847,VALID,17.2296,VALID,65,VALID,0,
2008-07-24, 02:21:00,VALID,916.387,VALID,0,VALID,100,VALID,-0.101885,VALID,17.1258,VALID,65,VALID,0,
2008-07-24, 02:22:00,VALID,916.361,VALID,0,VALID,100,VALID,-0.169808,VALID,17.0515,VALID,65,VALID,0,
2008-07-24, 02:23:00,VALID,916.334,VALID,0,VALID,100,VALID,-0.118866,VALID,16.9897,VALID,65,VALID,0,
2008-07-24, 02:24:00,VALID,916.318,VALID,0,VALID,100,VALID,-0.101885,VALID,16.9341,VALID,65,VALID,0,
2008-07-24, 02:25:00,VALID,916.306,VALID,0,VALID,100,VALID,-0.101885,VALID,16.8989,VALID,65,VALID,0,
2008-07-24, 02:26:00,VALID,916.308,VALID,0,VALID,100,VALID,-0.101885,VALID,16.9123,VALID,65,VALID,0,
2008-07-24, 02:27:00,VALID,916.32,VALID,0,VALID,100,VALID,-0.0849042,VALID,16.9209,VALID,65,VALID,0,
2008-07-24, 02:28:00,VALID,916.329,VALID,0,VALID,100,VALID,-0.101885,VALID,16.9309,VALID,65,VALID,0,
2008-07-24, 02:29:00,VALID,916.32,VALID,0,VALID,100,VALID,-0.118866,VALID,16.9601,VALID,65,VALID,0,
2008-07-24, 02:30:00,VALID,916.317,VALID,0,VALID,100,VALID,-0.118866,VALID,16.9797,VALID,65,VALID,0,
2008-07-24, 02:31:00,VALID,916.283,VALID,0,VALID,100,VALID,-0.118866,VALID,17.0054,VALID,65,VALID,0,
2008-07-24, 02:32:00,VALID,916.248,VALID,0,VALID,100,VALID,-0.0849042,VALID,17.0022,VALID,65,VALID,0,
2008-07-24, 02:33:00,VALID,916.219,VALID,0,VALID,100,VALID,-0.0849042,VALID,16.9341,VALID,65,VALID,0,
2008-07-24, 02:34:00,VALID,916.191,VALID,0,VALID,100,VALID,-0.101885,VALID,16.9114,VALID,65,VALID,0,
2008-07-24, 02:35:00,VALID,916.173,VALID,0,VALID,100,VALID,-0.101885,VALID,16.892,VALID,65,VALID,0,
2008-07-24, 02:36:00,VALID,916.161,VALID,0,VALID,100,VALID,-0.101885,VALID,16.8952,VALID,65,VALID,0,
2008-07-24, 02:37:00,VALID,916.159,VALID,0,VALID,100,VALID,-0.118866,VALID,16.9177,VALID,65,VALID,0,
2008-07-24, 02:38:00,VALID,916.183,VALID,0,VALID,100,VALID,-0.101885,VALID,16.9404,VALID,65,VALID,0,
2008-07-24, 02:39:00,VALID,916.191,VALID,0,VALID,100,VALID,-0.101885,VALID,16.9795,VALID,65,VALID,0,
2008-07-24, 02:40:00,VALID,916.205,VALID,0,VALID,100,VALID,-0.101885,VALID,16.9827,VALID,65,VALID,0,
2008-07-24, 02:41:00,VALID,916.211,VALID,0,VALID,100,VALID,-0.0849042,VALID,16.973,VALID,65,VALID,0,
2008-07-24, 02:42:00,VALID,916.207,VALID,0,VALID,100,VALID,-0.101885,VALID,16.97,VALID,188,VALID,0.0268342,
2008-07-24, 02:43:00,VALID,916.195,VALID,0,VALID,100,VALID,-0.101885,VALID,16.9955,VALID,199,VALID,0,
2008-07-24, 02:44:00,VALID,916.179,VALID,0,VALID,100,VALID,-0.101885,VALID,17.0214,VALID,199,VALID,0,
2008-07-24, 02:45:00,VALID,916.158,VALID,0,VALID,100,VALID,-0.101885,VALID,17.0281,VALID,199,VALID,0,
2008-07-24, 02:46:00,VALID,916.161,VALID,0,VALID,100,VALID,-0.0849042,VALID,17.0541,VALID,198,VALID,0,
2008-07-24, 02:47:00,VALID,916.128,VALID,0,VALID,100,VALID,-0.152827,VALID,17.0865,VALID,185,VALID,0,
2008-07-24, 02:48:00,VALID,916.125,VALID,0,VALID,100,VALID,-0.118866,VALID,17.1319,VALID,163,VALID,0,
2008-07-24, 02:49:00,VALID,916.11,VALID,0,VALID,100,VALID,-0.101885,VALID,17.2065,VALID,154,VALID,0.35831,
2008-07-24, 02:50:00,VALID,916.108,VALID,0,VALID,100,VALID,-0.118866,VALID,17.2454,VALID,154,VALID,0.741667,
2008-07-24, 02:51:00,VALID,916.096,VALID,0,VALID,100,VALID,-0.135847,VALID,17.3202,VALID,152,VALID,0.783366,
2008-07-24, 02:52:00,VALID,916.1,VALID,0,VALID,100,VALID,-0.101885,VALID,17.3948,VALID,153,VALID,0.828852,
2008-07-24, 02:53:00,VALID,916.086,VALID,0,VALID,100,VALID,-0.101885,VALID,17.4592,VALID,138,VALID,0.599564,
2008-07-24, 02:54:00,VALID,916.075,VALID,0,VALID,100,VALID,-0.101885,VALID,17.5048,VALID,115,VALID,0.256359,
2008-07-24, 02:55:00,VALID,916.067,VALID,0,VALID,100,VALID,-0.135847,VALID,17.5046,VALID,122,VALID,0.00763081,
2008-07-24, 02:56:00,VALID,916.045,VALID,0,VALID,100,VALID,-0.118866,VALID,17.5402,VALID,127,VALID,0.00911458,
2008-07-24, 02:57:00,VALID,916.046,VALID,0,VALID,100,VALID,-0.152827,VALID,17.5504,VALID,107,VALID,0,
2008-07-24, 02:58:00,VALID,916.036,VALID,0,VALID,100,VALID,-0.135847,VALID,17.5634,VALID,135,VALID,0,
2008-07-24, 02:59:00,VALID,916.046,VALID,0,VALID,100,VALID,-0.135847,VALID,17.5733,VALID,151,VALID,0,
2008-07-24, 03:00:00,VALID,916.04,VALID,0,VALID,100,VALID,-0.118866,VALID,17.5958,VALID,164,VALID,0,
2008-07-24, 03:01:00,VALID,916.044,VALID,0,VALID,100,VALID,-0.135847,VALID,17.6447,VALID,154,VALID,0,
2008-07-24, 03:02:00,VALID,916.042,VALID,0,VALID,100,VALID,-0.101885,VALID,17.6794,VALID,151,VALID,0,
2008-07-24, 03:03:00,VALID,916.042,VALID,0,VALID,100,VALID,-0.0509425,VALID,17.708,VALID,150,VALID,0,
2008-07-24, 03:04:00,VALID,916.029,VALID,0,VALID,100,VALID,-0.0339617,VALID,17.7438,VALID,152,VALID,0,
2008-07-24, 03:05:00,VALID,916.026,VALID,0,VALID,100,VALID,-0.0339617,VALID,17.7601,VALID,118,VALID,0,
2008-07-24, 03:06:00,VALID,916.029,VALID,0,VALID,100,VALID,-0.0679233,VALID,17.7568,VALID,112,VALID,0,
2008-07-24, 03:07:00,VALID,916.011,VALID,0,VALID,100,VALID,-0.0169808,VALID,17.7466,VALID,132,VALID,0,
2008-07-24, 03:08:00,VALID,916.019,VALID,0,VALID,100,VALID,0,VALID,17.7374,VALID,167,VALID,0,
2008-07-24, 03:09:00,VALID,916.015,VALID,0,VALID,100,VALID,-0.0509425,VALID,17.7408,VALID,155,VALID,0.0025436,
2008-07-24, 03:10:00,VALID,916.011,VALID,0,VALID,100,VALID,-0.0169808,VALID,17.7339,VALID,149,VALID,0,
2008-07-24, 03:11:00,VALID,915.994,VALID,0,VALID,100,VALID,-0.0509425,VALID,17.7506,VALID,192,VALID,0,
2008-07-24, 03:12:00,VALID,916.007,VALID,0,VALID,100,VALID,-0.0339617,VALID,17.7406,VALID,155,VALID,0,
2008-07-24, 03:13:00,VALID,916.001,VALID,0,VALID,100,VALID,-0.0169808,VALID,17.7471,VALID,149,VALID,0,
2008-07-24, 03:14:00,VALID,916,VALID,0,VALID,100,VALID,-0.0339617,VALID,17.7635,VALID,153,VALID,0.22154,
2008-07-24, 03:15:00,VALID,916.002,VALID,0,VALID,100,VALID,-0.0339617,VALID,17.7702,VALID,150,VALID,0.274368,
2008-07-24, 03:16:00,VALID,916.01,VALID,0,VALID,100,VALID,-0.0169808,VALID,17.7531,VALID,157,VALID,1.08176,
2008-07-24, 03:17:00,VALID,916.016,VALID,0,VALID,100,VALID,-0.101885,VALID,17.7383,VALID,155,VALID,0.836285,
2008-07-24, 03:18:00,VALID,916.03,VALID,0,VALID,100,VALID,-0.135847,VALID,17.719,VALID,157,VALID,0.59096,
2008-07-24, 03:19:00,VALID,916.031,VALID,0,VALID,100,VALID,-0.152827,VALID,17.7229,VALID,151,VALID,0.068859,
2008-07-24, 03:20:00,VALID,916.015,VALID,0,VALID,100,VALID,-0.101885,VALID,17.722,VALID,151,VALID,0.0376736,
2008-07-24, 03:21:00,VALID,916.013,VALID,0,VALID,100,VALID,-0.135847,VALID,17.7156,VALID,151,VALID,0.175509,
2008-07-24, 03:22:00,VALID,915.985,VALID,0,VALID,100,VALID,-0.135847,VALID,17.7093,VALID,155,VALID,0.193677,
2008-07-24, 03:23:00,VALID,915.993,VALID,0,VALID,100,VALID,-0.152827,VALID,17.687,VALID,149,VALID,0.700452,
2008-07-24, 03:24:00,VALID,915.979,VALID,0,VALID,100,VALID,-0.152827,VALID,17.6676,VALID,167,VALID,0.24314,
2008-07-24, 03:25:00,VALID,915.978,VALID,0,VALID,100,VALID,-0.169808,VALID,17.6544,VALID,144,VALID,0,
2008-07-24, 03:26:00,VALID,915.979,VALID,0,VALID,100,VALID,-0.135847,VALID,17.6377,VALID,148,VALID,0.326672,
2008-07-24, 03:27:00,VALID,915.961,VALID,0,VALID,100,VALID,-0.118866,VALID,17.6284,VALID,135,VALID,0.731105,
2008-07-24, 03:28:00,VALID,915.95,VALID,0,VALID,100,VALID,-0.135847,VALID,17.5928,VALID,140,VALID,0.576527,
2008-07-24, 03:29:00,VALID,915.952,VALID,0,VALID,100,VALID,-0.118866,VALID,17.5865,VALID,139,VALID,0.738009,
2008-07-24, 03:30:00,VALID,915.964,VALID,0,VALID,100,VALID,-0.135847,VALID,17.5636,VALID,154,VALID,0.356286,
2008-07-24, 03:31:00,VALID,915.963,VALID,0,VALID,100,VALID,-0.135847,VALID,17.574,VALID,141,VALID,0.232465,
2008-07-24, 03:32:00,VALID,915.987,VALID,0,VALID,100,VALID,-0.0849042,VALID,17.5502,VALID,135,VALID,0.209604,
2008-07-24, 03:33:00,VALID,915.97,VALID,0,VALID,100,VALID,-0.0169808,VALID,17.5393,VALID,139,VALID,0.544965,
2008-07-24, 03:34:00,VALID,915.963,VALID,0,VALID,100,VALID,-0.0679233,VALID,17.5298,VALID,141,VALID,0.876715,
2008-07-24, 03:35:00,VALID,915.957,VALID,0,VALID,100,VALID,-0.0169808,VALID,17.5236,VALID,147,VALID,0.798971,
2008-07-24, 03:36:00,VALID,915.948,VALID,0,VALID,100,VALID,-0.0679233,VALID,17.5138,VALID,143,VALID,1.02486,
2008-07-24, 03:37:00,VALID,915.962,VALID,0,VALID,100,VALID,-0.0169808,VALID,17.5074,VALID,142,VALID,0.306463,
2008-07-24, 03:38:00,VALID,915.953,VALID,0,VALID,100,VALID,-0.0169808,VALID,17.5007,VALID,147,VALID,0.254167,
2008-07-24, 03:39:00,VALID,915.962,VALID,0,VALID,100,VALID,-0.0169808,VALID,17.4972,VALID,129,VALID,0.210938,
2008-07-24, 03:40:00,VALID,915.955,VALID,0,VALID,100,VALID,0.0169808,VALID,17.5037,VALID,138,VALID,0.0870808,
2008-07-24, 03:41:00,VALID,915.953,VALID,0,VALID,100,VALID,-0.0339617,VALID,17.5069,VALID,166,VALID,0.208507,
2008-07-24, 03:42:00,VALID,915.932,VALID,0,VALID,100,VALID,-0.0339617,VALID,17.5099,VALID,148,VALID,0.387695,
2008-07-24, 03:43:00,VALID,915.944,VALID,0,VALID,100,VALID,-0.0169808,VALID,17.5071,VALID,120,VALID,0.728161,
2008-07-24, 03:44:00,VALID,915.952,VALID,0,VALID,100,VALID,0,VALID,17.4972,VALID,101,VALID,0.656436,
2008-07-24, 03:45:00,VALID,915.968,VALID,0,VALID,100,VALID,-0.0169808,VALID,17.481,VALID,77,VALID,0.675327,
2008-07-24, 03:46:00,VALID,916.015,VALID,0,VALID,100,VALID,-0.0339617,VALID,17.4393,VALID,105,VALID,1.19308,
2008-07-24, 03:47:00,VALID,916.029,VALID,0,VALID,100,VALID,-0.0509425,VALID,17.4168,VALID,100,VALID,0.887962,